RYR5DF EDLV-EGPH

Flight info

Callsign RYR5DF
Flight time 1h 27m
Altitude 38000
Route SONEB3S SONEB P64 TENLI L602 AMGOD DCT GODOS DCT AGPED
Aircraft B738/M-SDE3FGILRWY/SB1

Departure

Time 2026-04-26 17:41
Airport Weeze (Niederrhein) Airport (EDLV)

Arrival

Time 2026-04-26 19:09
Airport Edinburgh Airport (EGPH)
Time Latitude Longitude Altitude Speed Heading
2026-04-26 17:16 51.59995 6.14872 111 ft 0 kts 92°
2026-04-26 17:34 51.59995 6.14858 111 ft 2 kts 92°
2026-04-26 17:34 51.59996 6.14842 111 ft 1 kts 92°
2026-04-26 17:34 51.59993 6.14819 111 ft 2 kts 57°
2026-04-26 17:34 51.59983 6.14802 111 ft 2 kts 26°
2026-04-26 17:35 51.59973 6.14797 111 ft 0 kts
2026-04-26 17:35 51.59966 6.14797 111 ft 0 kts
2026-04-26 17:38 51.60039 6.14816 111 ft 7 kts 55°
2026-04-26 17:38 51.60042 6.14899 111 ft 9 kts 92°
2026-04-26 17:38 51.60039 6.15043 112 ft 16 kts 92°
2026-04-26 17:38 51.60034 6.15258 113 ft 22 kts 91°
2026-04-26 17:39 51.60027 6.15555 114 ft 29 kts 92°
2026-04-26 17:39 51.60019 6.15865 113 ft 16 kts 94°
2026-04-26 17:39 51.60083 6.15952 113 ft 14 kts
2026-04-26 17:39 51.60183 6.15950 112 ft 13 kts 339°
2026-04-26 17:40 51.60211 6.15854 113 ft 0 kts 271°
2026-04-26 17:40 51.60211 6.15853 113 ft 0 kts 271°
2026-04-26 17:41 51.60216 6.15627 113 ft 58 kts 272°
2026-04-26 17:41 51.60239 6.14510 108 ft 139 kts 272°
2026-04-26 17:41 51.60284 6.12639 301 ft 185 kts 275°
2026-04-26 17:41 51.60472 6.10591 1185 ft 188 kts 290°
2026-04-26 17:42 51.60947 6.08721 2123 ft 182 kts 305°
2026-04-26 17:42 51.61895 6.07346 2653 ft 191 kts 336°
2026-04-26 17:42 51.63169 6.06567 3211 ft 204 kts 350°
2026-04-26 17:42 51.64609 6.06534 3800 ft 216 kts 12°
2026-04-26 17:43 51.66060 6.07464 4459 ft 229 kts 30°
2026-04-26 17:43 51.67334 6.08915 5365 ft 231 kts 42°
2026-04-26 17:43 51.68276 6.11074 6064 ft 245 kts 62°
2026-04-26 17:43 51.68966 6.13654 6610 ft 262 kts 65°
2026-04-26 17:44 51.69679 6.16463 7240 ft 275 kts 64°
2026-04-26 17:44 51.70428 6.19328 8086 ft 280 kts 64°
2026-04-26 17:44 51.71193 6.22196 8933 ft 284 kts 63°
2026-04-26 17:44 51.71976 6.25099 9728 ft 288 kts 63°
2026-04-26 17:45 51.72783 6.28082 10524 ft 292 kts 63°
2026-04-26 17:45 51.73611 6.31142 11145 ft 305 kts 63°
2026-04-26 17:45 51.74453 6.34266 11951 ft 308 kts 63°
2026-04-26 17:45 51.75303 6.37431 12688 ft 312 kts 63°
2026-04-26 17:46 51.76168 6.40658 13435 ft 316 kts 63°
2026-04-26 17:46 51.77045 6.43939 14149 ft 320 kts 63°
2026-04-26 17:46 51.77923 6.47212 14865 ft 324 kts 62°
2026-04-26 17:46 51.78943 6.50420 15547 ft 325 kts 54°
2026-04-26 17:47 51.80384 6.53212 16265 ft 321 kts 37°
2026-04-26 17:47 51.80945 6.53964 16490 ft 321 kts 33°
2026-04-26 17:47 51.84047 6.57334 17547 ft 325 kts 28°
2026-04-26 17:47 51.85968 6.59265 18175 ft 329 kts 28°
2026-04-26 17:48 51.87936 6.61255 18800 ft 332 kts 28°
2026-04-26 17:48 51.89890 6.63261 19412 ft 335 kts 28°
2026-04-26 17:48 51.91947 6.65079 19996 ft 335 kts 19°
2026-04-26 17:48 51.94173 6.66187 20576 ft 334 kts
2026-04-26 17:49 51.96457 6.66654 21139 ft 334 kts
2026-04-26 17:49 51.98794 6.66653 21691 ft 335 kts 354°
2026-04-26 17:49 52.01113 6.66312 22214 ft 336 kts 348°
2026-04-26 17:49 52.03365 6.65413 22724 ft 336 kts 339°
2026-04-26 17:50 52.05499 6.63900 23236 ft 337 kts 330°
2026-04-26 17:50 52.07519 6.61912 23747 ft 338 kts 324°
2026-04-26 17:50 52.09386 6.59564 24259 ft 339 kts 317°
2026-04-26 17:50 52.11008 6.56761 24789 ft 340 kts 309°
2026-04-26 17:51 52.12439 6.53684 25261 ft 343 kts 306°
2026-04-26 17:51 52.13829 6.50456 25282 ft 346 kts 305°
2026-04-26 17:51 52.15201 6.47191 25725 ft 348 kts 305°
2026-04-26 17:51 52.16545 6.43994 26397 ft 345 kts 305°
2026-04-26 17:52 52.17921 6.40743 26860 ft 348 kts 305°
2026-04-26 17:52 52.19295 6.37520 27327 ft 349 kts 306°
2026-04-26 17:52 52.20696 6.34247 27746 ft 352 kts 305°
2026-04-26 17:52 52.22105 6.30963 28241 ft 352 kts 305°
2026-04-26 17:53 52.23434 6.27729 28643 ft 354 kts 302°
2026-04-26 17:53 52.24639 6.24240 29044 ft 357 kts 296°
2026-04-26 17:53 52.25475 6.20419 29482 ft 361 kts 286°
2026-04-26 17:54 52.25675 6.12101 30206 ft 375 kts 265°
2026-04-26 17:54 52.25155 6.07951 30584 ft 379 kts 262°
2026-04-26 17:54 52.24612 6.03709 30864 ft 379 kts 266°
2026-04-26 17:54 52.24369 5.99418 31212 ft 377 kts 272°
2026-04-26 17:55 52.24464 5.95134 31547 ft 375 kts 279°
2026-04-26 17:55 52.24888 5.90975 31901 ft 373 kts 286°
2026-04-26 17:55 52.25636 5.86914 32161 ft 375 kts 293°
2026-04-26 17:55 52.26707 5.83027 32494 ft 374 kts 299°
2026-04-26 17:56 52.28058 5.79402 32783 ft 375 kts 305°
2026-04-26 17:56 52.31148 5.72557 33379 ft 378 kts 307°
2026-04-26 17:57 52.34287 5.65630 33963 ft 381 kts 306°
2026-04-26 17:57 52.35848 5.62084 34225 ft 383 kts 306°
2026-04-26 17:57 52.37386 5.58533 34456 ft 386 kts 306°
2026-04-26 17:57 52.38926 5.54934 34731 ft 387 kts 305°
2026-04-26 17:58 52.43549 5.43989 35374 ft 394 kts 305°
2026-04-26 17:59 52.46655 5.36580 35872 ft 394 kts 305°
2026-04-26 17:59 52.48210 5.32865 36157 ft 394 kts 304°
2026-04-26 17:59 52.49756 5.29171 36416 ft 394 kts 304°
2026-04-26 17:59 52.51309 5.25455 36660 ft 394 kts 304°
2026-04-26 18:00 52.52844 5.21780 36928 ft 394 kts 304°
2026-04-26 18:00 52.54398 5.18053 37218 ft 395 kts 304°
2026-04-26 18:00 52.55948 5.14328 37460 ft 395 kts 304°
2026-04-26 18:00 52.57494 5.10606 37701 ft 396 kts 304°
2026-04-26 18:01 52.59033 5.06894 37945 ft 396 kts 304°
2026-04-26 18:01 52.60588 5.03141 38206 ft 396 kts 304°
2026-04-26 18:01 52.63686 4.95648 38309 ft 397 kts 304°
2026-04-26 18:02 52.65747 4.90653 38309 ft 396 kts 304°
2026-04-26 18:02 52.69839 4.80707 38322 ft 397 kts 304°
2026-04-26 18:03 52.72930 4.73168 38329 ft 397 kts 304°
2026-04-26 18:03 52.76002 4.65654 38321 ft 397 kts 304°
2026-04-26 18:04 52.79082 4.58096 38338 ft 397 kts 304°
2026-04-26 18:05 52.83685 4.46762 38333 ft 397 kts 304°
2026-04-26 18:05 52.86737 4.39220 38329 ft 396 kts 304°
2026-04-26 18:06 52.89800 4.31624 38339 ft 397 kts 303°
2026-04-26 18:06 52.92858 4.24020 38338 ft 397 kts 303°
2026-04-26 18:07 52.95890 4.16458 38333 ft 396 kts 303°
2026-04-26 18:07 52.98926 4.08865 38339 ft 395 kts 303°
2026-04-26 18:08 53.01939 4.01307 38322 ft 395 kts 303°
2026-04-26 18:08 53.04964 3.93697 38316 ft 397 kts 303°
2026-04-26 18:09 53.08009 3.86011 38317 ft 398 kts 303°
2026-04-26 18:09 53.11030 3.78363 38322 ft 397 kts 303°
2026-04-26 18:10 53.14061 3.70667 38321 ft 397 kts 303°
2026-04-26 18:10 53.17069 3.63007 38324 ft 397 kts 303°
2026-04-26 18:11 53.20076 3.55324 38325 ft 396 kts 303°
2026-04-26 18:11 53.23067 3.47659 38325 ft 397 kts 302°
2026-04-26 18:12 53.26070 3.39945 38322 ft 397 kts 302°
2026-04-26 18:12 53.29003 3.32377 38320 ft 397 kts 302°
2026-04-26 18:13 53.31998 3.24613 38319 ft 397 kts 302°
2026-04-26 18:13 53.34959 3.16904 38326 ft 397 kts 302°
2026-04-26 18:14 53.37937 3.09123 38336 ft 397 kts 302°
2026-04-26 18:14 53.40910 3.01331 38339 ft 397 kts 302°
2026-04-26 18:15 53.43884 2.93510 38337 ft 398 kts 301°
2026-04-26 18:15 53.46838 2.85718 38335 ft 398 kts 301°
2026-04-26 18:16 53.49790 2.77906 38335 ft 398 kts 301°
2026-04-26 18:16 53.54207 2.66173 38332 ft 396 kts 301°
2026-04-26 18:17 53.57140 2.58351 38330 ft 397 kts 301°
2026-04-26 18:17 53.60078 2.50489 38325 ft 397 kts 301°
2026-04-26 18:18 53.62994 2.42667 38324 ft 396 kts 301°
2026-04-26 18:18 53.65911 2.34815 38323 ft 396 kts 300°
2026-04-26 18:19 53.68819 2.26961 38323 ft 397 kts 300°
2026-04-26 18:19 53.71745 2.19036 38322 ft 396 kts 300°
2026-04-26 18:20 53.74669 2.11091 38317 ft 396 kts 300°
2026-04-26 18:20 53.76603 2.05821 38317 ft 396 kts 300°
2026-04-26 18:21 53.80456 1.95289 38321 ft 395 kts 300°
2026-04-26 18:21 53.83335 1.87393 38320 ft 396 kts 300°
2026-04-26 18:22 53.86212 1.79472 38315 ft 396 kts 300°
2026-04-26 18:22 53.89099 1.71501 38309 ft 396 kts 300°
2026-04-26 18:23 53.91969 1.63550 38312 ft 396 kts 300°
2026-04-26 18:23 53.94835 1.55587 38309 ft 396 kts 300°
2026-04-26 18:24 53.97714 1.47560 38310 ft 396 kts 300°
2026-04-26 18:24 54.00560 1.39601 38303 ft 397 kts 300°
2026-04-26 18:25 54.03416 1.31589 38301 ft 396 kts 299°
2026-04-26 18:25 54.06270 1.23559 38298 ft 396 kts 299°
2026-04-26 18:26 54.09134 1.15470 38287 ft 396 kts 299°
2026-04-26 18:26 54.11954 1.07479 38296 ft 396 kts 299°
2026-04-26 18:27 54.14790 0.99418 38296 ft 396 kts 299°
2026-04-26 18:27 54.17598 0.91412 38295 ft 397 kts 298°
2026-04-26 18:28 54.20418 0.83346 38292 ft 396 kts 298°
2026-04-26 18:28 54.23228 0.75279 38281 ft 396 kts 298°
2026-04-26 18:29 54.26047 0.67159 38290 ft 397 kts 298°
2026-04-26 18:29 54.28855 0.59047 38279 ft 398 kts 298°
2026-04-26 18:30 54.31690 0.50832 38273 ft 398 kts 298°
2026-04-26 18:30 54.34485 0.42700 38293 ft 398 kts 298°
2026-04-26 18:31 54.37277 0.34554 38284 ft 397 kts 298°
2026-04-26 18:31 54.40071 0.26375 38277 ft 398 kts 297°
2026-04-26 18:32 54.42870 0.18154 38273 ft 397 kts 297°
2026-04-26 18:32 54.45636 0.10004 38276 ft 396 kts 297°
2026-04-26 18:33 54.48399 0.01832 38265 ft 396 kts 297°
2026-04-26 18:33 54.51166 -0.06380 38265 ft 396 kts 297°
2026-04-26 18:34 54.53920 -0.14582 38267 ft 398 kts 297°
2026-04-26 18:34 54.56670 -0.22794 38253 ft 398 kts 297°
2026-04-26 18:35 54.59434 -0.31079 38242 ft 398 kts 297°
2026-04-26 18:35 54.62165 -0.39293 38250 ft 397 kts 297°
2026-04-26 18:36 54.64900 -0.47545 38249 ft 398 kts 297°
2026-04-26 18:36 54.67627 -0.55802 38250 ft 397 kts 297°
2026-04-26 18:37 54.70372 -0.64139 38245 ft 396 kts 297°
2026-04-26 18:37 54.73097 -0.72448 38239 ft 397 kts 296°
2026-04-26 18:38 54.75812 -0.80753 38229 ft 396 kts 296°
2026-04-26 18:38 54.78505 -0.89023 38191 ft 396 kts 296°
2026-04-26 18:39 54.79863 -0.93198 37912 ft 391 kts 296°
2026-04-26 18:39 54.81182 -0.97257 37487 ft 387 kts 296°
2026-04-26 18:39 54.82480 -1.01261 36980 ft 385 kts 296°
2026-04-26 18:39 54.83792 -1.05318 36512 ft 384 kts 296°
2026-04-26 18:40 54.85096 -1.09355 36061 ft 381 kts 295°
2026-04-26 18:40 54.86367 -1.13292 35622 ft 379 kts 295°
2026-04-26 18:40 54.87668 -1.17334 35166 ft 377 kts 295°
2026-04-26 18:40 54.88930 -1.21260 34683 ft 374 kts 295°
2026-04-26 18:41 54.90197 -1.25207 34205 ft 370 kts 295°
2026-04-26 18:41 54.91450 -1.29117 33756 ft 365 kts 295°
2026-04-26 18:41 54.92681 -1.32963 33320 ft 361 kts 295°
2026-04-26 18:41 54.93880 -1.36718 32892 ft 356 kts 295°
2026-04-26 18:42 54.95065 -1.40434 32469 ft 352 kts 295°
2026-04-26 18:42 54.96248 -1.44154 32048 ft 347 kts 295°
2026-04-26 18:42 54.97413 -1.47821 31630 ft 343 kts 295°
2026-04-26 18:42 54.98549 -1.51403 31220 ft 339 kts 295°
2026-04-26 18:43 54.99679 -1.54972 30815 ft 335 kts 295°
2026-04-26 18:43 55.00796 -1.58507 30405 ft 331 kts 295°
2026-04-26 18:43 55.01895 -1.61991 30007 ft 331 kts 295°
2026-04-26 18:43 55.03029 -1.65605 29602 ft 348 kts 295°
2026-04-26 18:44 55.04192 -1.69319 29156 ft 352 kts 295°
2026-04-26 18:44 55.05376 -1.73087 28719 ft 348 kts 295°
2026-04-26 18:44 55.06515 -1.76711 28300 ft 343 kts 295°
2026-04-26 18:44 55.07656 -1.80339 27882 ft 339 kts 295°
2026-04-26 18:45 55.08778 -1.83918 27471 ft 335 kts 295°
2026-04-26 18:45 55.09887 -1.87460 27065 ft 331 kts 295°
2026-04-26 18:45 55.10985 -1.90978 26658 ft 327 kts 295°
2026-04-26 18:45 55.12066 -1.94450 26283 ft 323 kts 296°
2026-04-26 18:46 55.13146 -1.97843 26003 ft 321 kts 297°
2026-04-26 18:46 55.14274 -2.01283 25152 ft 331 kts 297°
2026-04-26 18:46 55.15420 -2.04738 24596 ft 331 kts 298°
2026-04-26 18:46 55.16570 -2.08191 24100 ft 329 kts 298°
2026-04-26 18:47 55.17726 -2.11677 23646 ft 326 kts 298°
2026-04-26 18:47 55.18846 -2.15062 23149 ft 325 kts 298°
2026-04-26 18:47 55.19966 -2.18464 22707 ft 322 kts 298°
2026-04-26 18:47 55.21079 -2.21852 22250 ft 320 kts 298°
2026-04-26 18:48 55.22184 -2.25228 21768 ft 318 kts 298°
2026-04-26 18:48 55.23278 -2.28578 21336 ft 315 kts 298°
2026-04-26 18:48 55.24357 -2.31885 20888 ft 313 kts 298°
2026-04-26 18:48 55.25439 -2.35210 20420 ft 312 kts 298°
2026-04-26 18:49 55.26500 -2.38472 19966 ft 310 kts 298°
2026-04-26 18:49 55.27564 -2.41750 19489 ft 309 kts 298°
2026-04-26 18:49 55.28628 -2.45033 19040 ft 307 kts 298°
2026-04-26 18:49 55.29679 -2.48276 18575 ft 306 kts 298°
2026-04-26 18:50 55.30724 -2.51505 18163 ft 302 kts 298°
2026-04-26 18:50 55.31757 -2.54706 17703 ft 302 kts 298°
2026-04-26 18:50 55.32787 -2.57899 17290 ft 299 kts 298°
2026-04-26 18:50 55.33801 -2.61055 16848 ft 297 kts 298°
2026-04-26 18:51 55.34817 -2.64221 16363 ft 297 kts 298°
2026-04-26 18:51 55.35828 -2.67372 15951 ft 295 kts 297°
2026-04-26 18:51 55.36834 -2.70512 15518 ft 293 kts 297°
2026-04-26 18:51 55.37820 -2.73587 15063 ft 292 kts 297°
2026-04-26 18:52 55.38820 -2.76709 14622 ft 290 kts 297°
2026-04-26 18:52 55.39469 -2.78734 14343 ft 289 kts 297°
2026-04-26 18:52 55.40787 -2.82853 13703 ft 289 kts 297°
2026-04-26 18:52 55.41766 -2.85919 13338 ft 286 kts 297°
2026-04-26 18:53 55.42737 -2.88961 12974 ft 282 kts 297°
2026-04-26 18:53 55.43684 -2.91931 12623 ft 278 kts 297°
2026-04-26 18:53 55.44632 -2.94912 12275 ft 275 kts 297°
2026-04-26 18:53 55.45610 -2.97772 11929 ft 272 kts 303°
2026-04-26 18:54 55.46934 -3.00090 11587 ft 273 kts 326°
2026-04-26 18:54 55.48672 -3.01368 11261 ft 272 kts 340°
2026-04-26 18:54 55.50486 -3.02263 10909 ft 271 kts 341°
2026-04-26 18:54 55.52319 -3.03156 10557 ft 268 kts 341°
2026-04-26 18:55 55.54098 -3.04071 10223 ft 266 kts 340°
2026-04-26 18:55 55.55859 -3.05021 10063 ft 263 kts 339°
2026-04-26 18:55 55.57613 -3.05993 9698 ft 267 kts 339°
2026-04-26 18:55 55.59372 -3.06974 9355 ft 265 kts 339°
2026-04-26 18:56 55.61139 -3.07958 9023 ft 263 kts 339°
2026-04-26 18:56 55.62870 -3.08921 8697 ft 260 kts 339°
2026-04-26 18:56 55.64578 -3.09873 8378 ft 258 kts 339°
2026-04-26 18:56 55.66278 -3.10821 8056 ft 256 kts 339°
2026-04-26 18:57 55.67964 -3.11763 7738 ft 255 kts 339°
2026-04-26 18:57 55.68549 -3.12091 7627 ft 255 kts 339°
2026-04-26 18:57 55.71318 -3.13677 7218 ft 249 kts 334°
2026-04-26 18:57 55.72720 -3.15387 7042 ft 248 kts 308°
2026-04-26 18:58 55.73548 -3.18007 6787 ft 243 kts 288°
2026-04-26 18:58 55.74028 -3.20883 6530 ft 241 kts 280°
2026-04-26 18:58 55.74284 -3.23816 6263 ft 240 kts 276°
2026-04-26 18:58 55.74466 -3.26734 6071 ft 237 kts 275°
2026-04-26 18:59 55.74634 -3.29634 5947 ft 238 kts 275°
2026-04-26 18:59 55.74802 -3.32581 5820 ft 239 kts 275°
2026-04-26 18:59 55.74966 -3.35511 5676 ft 238 kts 275°
2026-04-26 18:59 55.75128 -3.38434 5541 ft 237 kts 275°
2026-04-26 19:00 55.75287 -3.41339 5427 ft 237 kts 275°
2026-04-26 19:00 55.75446 -3.44264 5307 ft 237 kts 275°
2026-04-26 19:00 55.75602 -3.47169 5182 ft 237 kts 275°
2026-04-26 19:00 55.75759 -3.50073 5048 ft 236 kts 275°
2026-04-26 19:01 55.75916 -3.52982 4990 ft 234 kts 276°
2026-04-26 19:01 55.76352 -3.55760 4981 ft 238 kts 295°
2026-04-26 19:01 55.77153 -3.58355 4969 ft 239 kts 299°
2026-04-26 19:01 55.77988 -3.60828 4761 ft 226 kts 300°
2026-04-26 19:02 55.78772 -3.63122 4623 ft 212 kts 300°
2026-04-26 19:02 55.79512 -3.65278 4482 ft 198 kts 299°
2026-04-26 19:02 55.80208 -3.67301 4342 ft 189 kts 299°
2026-04-26 19:02 55.80445 -3.67991 4285 ft 186 kts 299°
2026-04-26 19:03 55.81626 -3.71154 4030 ft 185 kts 315°
2026-04-26 19:03 55.82739 -3.72075 3981 ft 176 kts 354°
2026-04-26 19:03 55.83893 -3.71470 3988 ft 178 kts 37°
2026-04-26 19:03 55.84555 -3.69621 3990 ft 180 kts 78°
2026-04-26 19:04 55.84806 -3.67466 3993 ft 180 kts 71°
2026-04-26 19:04 55.85356 -3.65446 3733 ft 183 kts 58°
2026-04-26 19:04 55.86018 -3.63507 3420 ft 182 kts 57°
2026-04-26 19:04 55.86676 -3.61591 3170 ft 178 kts 57°
2026-04-26 19:05 55.87940 -3.57909 2685 ft 173 kts 57°
2026-04-26 19:05 55.88568 -3.56078 2437 ft 174 kts 57°
2026-04-26 19:05 55.89203 -3.54224 2194 ft 173 kts 57°
2026-04-26 19:06 55.89830 -3.52392 1952 ft 172 kts 57°
2026-04-26 19:06 55.90439 -3.50613 1733 ft 161 kts 57°
2026-04-26 19:06 55.91007 -3.48949 1519 ft 151 kts 57°
2026-04-26 19:06 55.91545 -3.47378 1297 ft 147 kts 57°
2026-04-26 19:07 55.92072 -3.45844 1104 ft 145 kts 57°
2026-04-26 19:07 55.92603 -3.44311 900 ft 144 kts 57°
2026-04-26 19:07 55.93101 -3.42832 713 ft 142 kts 58°
2026-04-26 19:07 55.93619 -3.41278 524 ft 141 kts 57°
2026-04-26 19:08 55.94130 -3.39797 317 ft 140 kts 57°
2026-04-26 19:08 55.94630 -3.38332 158 ft 138 kts 58°
2026-04-26 19:08 55.95056 -3.37076 142 ft 85 kts 58°
2026-04-26 19:08 55.95276 -3.36430 142 ft 51 kts 58°
2026-04-26 19:09 55.95441 -3.35945 142 ft 39 kts 58°
2026-04-26 19:09 55.95550 -3.35617 142 ft 21 kts 59°
2026-04-26 19:09 55.95511 -3.35457 142 ft 16 kts 146°
2026-04-26 19:09 55.95421 -3.35441 142 ft 13 kts 218°
2026-04-26 19:10 55.95367 -3.35593 142 ft 13 kts 239°
2026-04-26 19:10 55.95319 -3.35736 142 ft 13 kts 238°
2026-04-26 19:10 55.95265 -3.35896 142 ft 16 kts 237°
2026-04-26 19:10 55.95202 -3.36078 142 ft 17 kts 238°
2026-04-26 19:11 55.95140 -3.36259 142 ft 16 kts 239°
2026-04-26 19:11 55.95099 -3.36381 142 ft 8 kts 229°
2026-04-26 19:11 55.95038 -3.36377 142 ft 9 kts 180°
2026-04-26 19:11 55.94990 -3.36467 142 ft 8 kts 238°
2026-04-26 19:12 55.94968 -3.36534 142 ft 5 kts 239°
2026-04-26 19:12 55.94939 -3.36532 142 ft 6 kts 150°
2026-04-26 19:12 55.94923 -3.36514 142 ft 3 kts 148°
2026-04-26 19:12 55.94910 -3.36500 142 ft 1 kts 148°
2026-04-26 19:13 55.94907 -3.36497 142 ft 0 kts 148°